Showing default

AURORA 1, 2876

Orbit data source: Space-Track

AURORA 1, 2876 is an American payload satellite in LEO that was launched on Thu, 29 Jun 1967 UTC via a THOR BURNER 2 launch vehicle from the Air Force Western Test Range (AFWTR). Payload-class satellites include a variety of spacecraft equipped with specific instruments for various scientific and technological missions. These include communications satellites like Starlink; space stations such as the ISS; scientific satellites like the Hubble; Earth observation satellites from companies like Planet Labs, Umbra, and HawkEye 360; GPS; miniature CubeSats for education and research; and military/defense satellites.

Loading next visibility...
Identifier
2876, 1967-065B
Orbit
LEO
Country
Flag of USUS
Related business
Manufacturer
Rice
Mission
Spacecraft
Bus & Motor
RICE AURORA, Unknown motor
Mass
21 kg wet, 21 kg dry
Launch date (UTC)
1967-06-29 (58 years ago)
Launch vehicle
THOR BURNER 2
Launch site
Air Force Western Test Range (AFWTR)
Object type
Payload
Rocket body
Debris
Shape & HBR
Unknown
Radar Cross Section
Medium (>0.1 m² and <1 m²)

Expand to show TLE details & history
Last TLE update: 1 day ago

TLE from 1 day ago
0 AURORA 1
1 02876U 67065B   25287.06453000  .00000001  00000-0 -20597-3 0  9997
2 02876  89.9903 313.4494 0070896 339.2891  20.5079  8.36560634369020
Epoch: 2025-10-14T01:32Z
TLE epoch observation values (Epoch: 2025-10-14T01:32:55.392Z)
Latitude
0.00009°
Longitude
-92.63972°
Altitude
3,806.31 km
Speed
6.277 km/s
True Right ascension
20h 53m 47s
True Declination
0° 00' 00"
Sunlit
Object was in daylight at epoch
Visualization orbit readout
Latitude
Unknown
Longitude
Unknown
Altitude
Unknown
Speed
Unknown
Apparent Right ascension
Unknown
Apparent Declination
Unknown
Sunlit
N/A
Visualization observer readout
Local Sidereal Time
01:14:03
Azimuth
Unknown
Elevation
Unknown
Doppler factor
Unknown
Orbital elements
Apogee altitude
3,942.684 km
Perigee altitude
3,797.373 km
Semi-major axis
10,248.166 km
Eccentricity
0.00709
Inclination
89.9903°
RAAN
313.4494°
Arg. of periapsis
339.2891°
True anomaly
20.7949°
Mean anomaly
20.5079°
Eccentric anomaly
20.65116°
Mean motion
2.09206 °/min
Orbital period
172.08 mins
BSTAR
-0.00020597
Loading maneuver chart data...
Computing Atmospheric mass density...
Loading historical data...
Loading historical data...
Loading historical data...
Loading historical data...
Loading historical data...
Loading historical data...
Loading historical data...
Other satellites on launch #65 in the year 1967 (1967-06-29 UTC)

Documentation

Showing up to 5 results
|